Regional Weather Roundup
Issued by NWS Bismarck, ND

Home | Current Version | Previous Version | Text Only | Print | Product List | Glossary On
Versions: 1 2 3 4 5 6 7 8 9 10 11 12 13 14 15 16 17 18 19 20 21 22 23 24 25 26 27 28 29 30 31 32 33 34 35 36 37 38 39 40 41 42 43 44 45 46 47 48 49 50
000
ASUS43 KBIS 251910
RWRBIS

NWR BROADCAST TEXT
NATIONAL WEATHER SERVICE BISMARCK ND
100 PM CST SUN FEB 25 2018

NOTE: "FAIR" INDICATES FEW OR NO CLOUDS BELOW 12,000 FEET WITH NO
SIGNIFICANT WEATHER AND/OR OBSTRUCTIONS TO VISIBILITY.


CITY           SKY/WX    TMP DP  RH WIND       PRES   REMARKS
WILLISTON      FAIR      21  10  62 SW12      29.63F WCI   9
MINOT          FAIR      27  17  66 SW20      29.63R WCI  13
MINOT AFB      SUNNY     26  17  68 W17         N/A  WCI  13
BISMARCK       FAIR      29  17  61 W13       29.72S WCI  19
DICKINSON      FAIR      26  16  65 W17       29.63F WCI  13
GARRISON         N/A     25  17  72 W12       29.65S WCI  14
HETTINGER ARPT SUNNY     24  16  71 W17       29.71S WCI  11
JAMESTOWN      FAIR      28  19  69 W23G29    29.65S WCI  14
CARRINGTON     FAIR      28  21  74 W22       29.66R WCI  15
LINTON           N/A     27  14  59 W10       29.75S WCI  17
OAKES            N/A     27  19  74 W17       29.71R WCI  14
TIOGA          FAIR      19  14  79 W15       29.61F WCI   5
$$

CITY           SKY/WX    TMP DP  RH WIND       PRES   REMARKS
GRAND FORKS    PTSUNNY   28  21  75 W15       29.61R WCI  16
GRAND FORKS AF CLOUDY    29  19  67 NW13      29.60R WCI  18
DEVILS LAKE    PTSUNNY   24  19  81 W16       29.61R WCI  11
FARGO          PTSUNNY   27  19  72 W17       29.66R WCI  14
CANDO          CLOUDY    27  21  80 W21       29.61R WCI  13
CAVALIER         N/A     25  18  74 NW8       29.57S WCI  16
GWINNER          N/A     27  21  80 W16       29.70S WCI  14
ROLLA          FAIR      27  19  74 W12       29.56R WCI  16
WALHALLA       FAIR      27  19  74 NW12      29.57S WCI  16
$$

CITY           SKY/WX    TMP DP  RH WIND       PRES   REMARKS
ABERDEEN       SUNNY     28  18  66 W13       29.78R WCI  17
MOBRIDGE       SUNNY     27  16  63 W13       29.74S WCI  16
BUFFALO          N/A     26  16  65 W22       29.64F WCI  12
RAPID CITY     MOSUNNY   26  18  71 E10       29.78S WCI  16
GLASGOW        CLOUDY    16   9  74 E6        29.59S WCI   7
SIDNEY         MOSUNNY   24  13  62 SW16      29.65F WCI  11
WOLF POINT     CLOUDY    20   9  62 W6        29.63F WCI  12
GLENDIVE       CLOUDY    24  15  68 SW12      29.66S WCI  13
MILES CITY     CLOUDY    25  17  72 W8        29.69F WCI  16
BAKER          MOSUNNY   25  17  72 SW21      29.67F WCI  11
$$

CITY           SKY/WX    TMP DP  RH WIND       PRES   REMARKS
BILLINGS       PTSUNNY   29  13  51 W18       29.71S WCI  16
GREAT FALLS    PTSUNNY   28  17  63 SW31G44   29.58F WCI  12
REGINA         PTSUNNY   19  12  73 S10       29.52S WCI   8
ESTEVAN        MOSUNNY   23  14  68 SW9       29.58F WCI  13
$$




USA.gov is the U.S. government's official web portal to all federal, state and local government web resources and services.